• Processing (Info)

  • MPEC 2015-M07 : 2015 LH24

    The following Minor Planet Electronic Circular may be linked-to from your own Web pages, but must not otherwise be redistributed electronically.

    A form allowing access to any MPEC is at the bottom of this page.


    Read MPEC 2015-M06 Read MPEC 2015-M08


    M.P.E.C. 2015-M07                                Issued 2015 June 16, 14:07 UT
    
         The Minor Planet Electronic Circulars contain information on unusual
             minor planets and routine data on comets.  They are published
       on behalf of Commission 20 of the International Astronomical Union by the
              Minor Planet Center, Smithsonian Astrophysical Observatory,
                              Cambridge, MA 02138, U.S.A.
    
                 Prepared using the Tamkin Foundation Computer Network
    
                                  MPC@CFA.HARVARD.EDU
                URL https://www.minorplanetcenter.net/    ISSN 1523-6714
    
                                       2015 LH24
    
    Observations:
         K15L24H* C2015 06 12.49707 16 15 12.248+15 47 06.49         21.9 wLEM007F51
         K15L24H  C2015 06 12.51105 16 15 12.644+15 46 59.92         21.9 wLEM007F51
         K15L24H  C2015 06 12.52494 16 15 13.017+15 46 53.11         21.6 wLEM007F51
         K15L24H  C2015 06 13.24568 16 15 42.02 +15 41 07.7          22.0 RoEM007926
         K15L24H  C2015 06 13.26122 16 15 42.44 +15 41 00.1          22.0 RoEM007926
         K15L24H  C2015 06 13.27676 16 15 42.88 +15 40 51.8          22.1 RoEM007926
         K15L24H _C2015 06 13.45927816 15 49.178+15 39 25.29         21.3 RtEM007568
         K15L24H _C2015 06 13.46057616 15 49.217+15 39 24.52         21.4 RtEM007568
         K15L24H _C2015 06 13.46190016 15 49.251+15 39 23.84         21.4 RtEM007568
         K15L24H _C2015 06 13.47599516 15 49.641+15 39 16.22         21.4 RtEM007568
         K15L24H _C2015 06 13.47731416 15 49.677+15 39 15.50         21.4 RtEM007568
         K15L24H _C2015 06 13.47862116 15 49.715+15 39 14.81         21.4 RtEM007568
         K15L24H _C2015 06 13.47991616 15 49.749+15 39 14.09         21.3 RtEM007568
         K15L24H _C2015 06 13.48120716 15 49.786+15 39 13.39         21.3 RtEM007568
         K15L24H _C2015 06 13.48252716 15 49.825+15 39 12.69         21.2 RtEM007568
         K15L24H _C2015 06 13.48383016 15 49.861+15 39 11.98         21.3 RtEM007568
         K15L24H _C2015 06 13.48513416 15 49.900+15 39 11.24         21.4 RtEM007568
         K15L24H _C2015 06 13.48643716 15 49.936+15 39 10.52         21.2 RtEM007568
         K15L24H  C2015 06 14.23284 16 16 21.52 +15 32 21.0          22.0 RoEM007926
         K15L24H  C2015 06 14.24670 16 16 21.93 +15 32 13.3          22.3 RoEM007926
         K15L24H KC2015 06 14.26124 16 16 22.26 +15 32 03.1                oEM007291
         K15L24H  C2015 06 14.26671 16 16 22.49 +15 32 01.7          21.7 RoEM007926
         K15L24H KC2015 06 14.27950 16 16 22.90 +15 31 54.9          21.8 RoEM007291
         K15L24H KC2015 06 14.29479 16 16 23.36 +15 31 46.0          21.6 RoEM007291
         K15L24H  C2015 06 16.23558 16 17 48.93 +15 11 02.1          22.6 RoEM007926
         K15L24H  C2015 06 16.24949 16 17 49.43 +15 10 52.2          22.4 RoEM007926
         K15L24H  C2015 06 16.26664 16 17 50.00 +15 10 39.9          22.4 RoEM007926
         K15L24H KC2015 06 16.27020 16 17 50.13 +15 10 37.4          21.3 RoEM007291
         K15L24H KC2015 06 16.28042 16 17 50.49 +15 10 29.9          21.2 RoEM007291
         K15L24H KC2015 06 16.29095 16 17 50.85 +15 10 22.1          21.2 RoEM007291
    
    Observer details:
    291 LPL/Spacewatch II.  Observer R. A. Mastaler.  1.8-m f/2.7 reflector + CCD.
    568 Mauna Kea.  Observers R. J. Wainscoat, D. Woodworth.  Measurers M. Micheli,
        R. J. Wainscoat.  3.6-m Canada-France-Hawaii Telescope + CCD.
    926 Tenagra II Observatory.  Observers M. Schwartz, P. R. Holvorcem.  Measurer
        M. Schwartz.  0.81-m f/7 Ritchey-Chretien + CCD.
    F51 Pan-STARRS 1, Haleakala.  Observers B. Gibson, T. Goggia, N. Primak,
        A. Schultz, M. Willman.  Measurers K. Chambers, S. Chastel, L. Denneau,
        H. Flewelling, M. Huber, E. Lilly, E. Magnier, R. Wainscoat, C. Waters,
        R. Weryk.  1.8-m Ritchey-Chretien + CCD.
    
    Orbital elements:
    2015 LH24                                                Earth MOID = 0.1878 AU
    Epoch 2015 June 27.0 TT = JDT 2457200.5                 MPC
    M 354.90054              (2000.0)            P               Q
    n   0.31282702     Peri.  149.09302     +0.24976492     +0.96216636
    a   2.1491491      Node   135.11394     -0.91694524     +0.27114952
    e   0.4469528      Incl.    8.87488     -0.31117345     -0.02671777
    P   3.15           H   22.7           G   0.15           U   8
    Residuals in seconds of arc
    150612 F51  0.1-  0.0     150613 568  0.2-  0.1+    150614 291  1.3-  1.6-
    150612 F51  0.2+  0.1+    150613 568  0.2-  0.1+    150614 926  0.1+  0.2-
    150612 F51  0.0   0.1+    150613 568  0.2-  0.1+    150614 291  0.3+  0.7+
    150613 926  0.1-  0.1-    150613 568  0.2-  0.1+    150614 291  0.5+  0.6+
    150613 926  0.0   0.0     150613 568  0.2-  0.1+    150616 926  0.0   0.1+
    150613 926  0.4+  0.5-    150613 568  0.2-  0.1+    150616 926  0.3+  0.0
    150613 568  0.2-  0.1+    150613 568  0.2-  0.1+    150616 926  0.1+  0.1-
    150613 568  0.1-  0.0     150613 568  0.2-  0.1+    150616 291  0.1-  0.3+
    150613 568  0.2-  0.1+    150614 926  0.3+  0.0     150616 291  0.0   0.1+
    150613 568  0.2-  0.1+    150614 926  0.4+  0.1+    150616 291  0.0   0.1-
    
    Ephemeris:
    2015 LH24                a,e,i = 2.15, 0.45, 9                   q = 1.1886
    Date    TT    R. A. (2000) Decl.     Delta      r     Elong.  Phase     V
    2015 05 17    16 06 35.4 +13 36 35   0.3620  1.3274   146.2    25.1    22.3
    ...
    2015 06 01    16 10 10.8 +16 03 31   0.3056  1.2676   141.6    29.8    21.9
    ...
    2015 06 09    16 13 17.6 +16 06 30   0.2820  1.2416   138.9    32.5    21.8
    ...
    2015 06 15    16 16 53.4 +15 24 54   0.2668  1.2251   137.3    34.2    21.7
    2015 06 16    16 17 37.8 +15 13 57   0.2644  1.2226   137.0    34.5    21.7
    2015 06 17    16 18 25.0 +15 01 48   0.2621  1.2202   136.8    34.8    21.7
    ...
    2015 06 23    16 24 12.3 +13 23 11   0.2494  1.2076   135.8    36.0    21.6
    ...
    2015 07 01    16 35 13.3 +10 01 23   0.2356  1.1956   135.3    36.7    21.4
    ...
    2015 07 16    17 07 19.4 +00 19 33   0.2224  1.1889   137.0    35.7    21.3
    
    A. U. Tomatic                (C) Copyright 2015 MPC           M.P.E.C. 2015-M07
    

    Read MPEC 2015-M06 Read MPEC 2015-M08


    MPEC number:

    Enter an MPEC number in one of the following forms:

    • 1997-B01 (the full form)
    • J97B01 (the packed version of the full form)
    • B01 (the abbreviated form)